,,Stat6,,Stat2,,Stat8,,Stat9,,Stat10,,Wind1,,Wind1,
time,status,PA1M_AVG,status,PR1M_SUM,status,RH1M_AVG,status,SR1M_AVG,status,TA1M_AVG,status,W1dAve1m,status,W1sAve1m,
2008-10-08, 00:00:00,VALID,918.378,VALID,0,VALID,100,VALID,-0.0169808,VALID,19.7772,VALID,16,VALID,0,
2008-10-08, 00:01:00,VALID,918.371,VALID,0,VALID,100,VALID,-0.0339617,VALID,19.7734,VALID,16,VALID,0,
2008-10-08, 00:02:00,VALID,918.354,VALID,0,VALID,100,VALID,-0.0339617,VALID,19.7804,VALID,18,VALID,0,
2008-10-08, 00:03:00,VALID,918.338,VALID,0,VALID,100,VALID,-0.0509425,VALID,19.7804,VALID,84,VALID,0,
2008-10-08, 00:04:00,VALID,918.319,VALID,0,VALID,100,VALID,-0.0169808,VALID,19.7737,VALID,84,VALID,0,
2008-10-08, 00:05:00,VALID,918.311,VALID,0,VALID,100,VALID,-0.0679233,VALID,19.7772,VALID,84,VALID,0,
2008-10-08, 00:06:00,VALID,918.292,VALID,0,VALID,100,VALID,0,VALID,19.7772,VALID,84,VALID,0,
2008-10-08, 00:07:00,VALID,918.284,VALID,0,VALID,100,VALID,-0.0169808,VALID,19.7607,VALID,84,VALID,0,
2008-10-08, 00:08:00,VALID,918.266,VALID,0,VALID,100,VALID,0.0169808,VALID,19.7243,VALID,84,VALID,0,
2008-10-08, 00:09:00,VALID,918.257,VALID,0,VALID,100,VALID,-0.0169808,VALID,19.7315,VALID,84,VALID,0,
2008-10-08, 00:10:00,VALID,918.246,VALID,0,VALID,100,VALID,0,VALID,19.7278,VALID,84,VALID,0,
2008-10-08, 00:11:00,VALID,918.241,VALID,0,VALID,100,VALID,-0.0169808,VALID,19.722,VALID,84,VALID,0,
2008-10-08, 00:12:00,VALID,918.227,VALID,0,VALID,100,VALID,-0.0169808,VALID,19.7088,VALID,84,VALID,0,
2008-10-08, 00:13:00,VALID,918.22,VALID,0,VALID,100,VALID,-0.0169808,VALID,19.6891,VALID,84,VALID,0,
2008-10-08, 00:14:00,VALID,918.2,VALID,0,VALID,100,VALID,-0.0339617,VALID,19.6833,VALID,84,VALID,0,
2008-10-08, 00:15:00,VALID,918.191,VALID,0,VALID,100,VALID,-0.0339617,VALID,19.6898,VALID,84,VALID,0,
2008-10-08, 00:16:00,VALID,918.189,VALID,0,VALID,100,VALID,-0.0849042,VALID,19.6996,VALID,84,VALID,0,
2008-10-08, 00:17:00,VALID,918.188,VALID,0,VALID,100,VALID,-0.0169808,VALID,19.6828,VALID,84,VALID,0,
2008-10-08, 00:18:00,VALID,918.187,VALID,0,VALID,100,VALID,-0.0339617,VALID,19.6571,VALID,84,VALID,0,
2008-10-08, 00:19:00,VALID,918.194,VALID,0,VALID,100,VALID,-0.0339617,VALID,19.6344,VALID,84,VALID,0,
2008-10-08, 00:20:00,VALID,918.186,VALID,0,VALID,100,VALID,-0.0169808,VALID,19.6142,VALID,84,VALID,0,
2008-10-08, 00:21:00,VALID,918.19,VALID,0,VALID,100,VALID,-0.0339617,VALID,19.6017,VALID,84,VALID,0,
2008-10-08, 00:22:00,VALID,918.2,VALID,0,VALID,100,VALID,0,VALID,19.6052,VALID,84,VALID,0,
2008-10-08, 00:23:00,VALID,918.196,VALID,0,VALID,100,VALID,0,VALID,19.595,VALID,84,VALID,0,
2008-10-08, 00:24:00,VALID,918.208,VALID,0,VALID,100,VALID,-0.0169808,VALID,19.6154,VALID,84,VALID,0,
2008-10-08, 00:25:00,VALID,918.202,VALID,0,VALID,100,VALID,-0.0169808,VALID,19.6244,VALID,84,VALID,0,
2008-10-08, 00:26:00,VALID,918.2,VALID,0,VALID,100,VALID,-0.0509425,VALID,19.6439,VALID,84,VALID,0,
2008-10-08, 00:27:00,VALID,918.199,VALID,0,VALID,100,VALID,-0.0339617,VALID,19.6377,VALID,84,VALID,0,
2008-10-08, 00:28:00,VALID,918.194,VALID,0,VALID,100,VALID,0,VALID,19.6566,VALID,84,VALID,0,
2008-10-08, 00:29:00,VALID,918.186,VALID,0,VALID,100,VALID,0,VALID,19.6696,VALID,84,VALID,0,
2008-10-08, 00:30:00,VALID,918.169,VALID,0,VALID,100,VALID,-0.0339617,VALID,19.6763,VALID,84,VALID,0,
2008-10-08, 00:31:00,VALID,918.161,VALID,0,VALID,100,VALID,-0.0169808,VALID,19.6961,VALID,84,VALID,0,
2008-10-08, 00:32:00,VALID,918.156,VALID,0,VALID,100,VALID,-0.0169808,VALID,19.6891,VALID,84,VALID,0,
2008-10-08, 00:33:00,VALID,918.127,VALID,0,VALID,100,VALID,-0.0339617,VALID,19.6896,VALID,84,VALID,0,
2008-10-08, 00:34:00,VALID,918.131,VALID,0,VALID,100,VALID,-0.0339617,VALID,19.6796,VALID,84,VALID,0,
2008-10-08, 00:35:00,VALID,918.122,VALID,0,VALID,100,VALID,0,VALID,19.6631,VALID,84,VALID,0,
2008-10-08, 00:36:00,VALID,918.118,VALID,0,VALID,100,VALID,-0.0169808,VALID,19.6599,VALID,84,VALID,0,
2008-10-08, 00:37:00,VALID,918.091,VALID,0,VALID,100,VALID,0,VALID,19.6469,VALID,84,VALID,0,
2008-10-08, 00:38:00,VALID,918.082,VALID,0,VALID,100,VALID,-0.0169808,VALID,19.6471,VALID,84,VALID,0,
2008-10-08, 00:39:00,VALID,918.067,VALID,0,VALID,100,VALID,0,VALID,19.6437,VALID,84,VALID,0,
2008-10-08, 00:40:00,VALID,918.053,VALID,0,VALID,100,VALID,-0.0169808,VALID,19.6469,VALID,84,VALID,0,
2008-10-08, 00:41:00,VALID,918.034,VALID,0,VALID,100,VALID,-0.0509425,VALID,19.6604,VALID,84,VALID,0,
2008-10-08, 00:42:00,VALID,918.03,VALID,0,VALID,100,VALID,0,VALID,19.6504,VALID,84,VALID,0,
2008-10-08, 00:43:00,VALID,918.008,VALID,0,VALID,100,VALID,-0.0339617,VALID,19.6664,VALID,84,VALID,0,
2008-10-08, 00:44:00,VALID,917.987,VALID,0,VALID,100,VALID,-0.0339617,VALID,19.6766,VALID,84,VALID,0,
2008-10-08, 00:45:00,VALID,917.95,VALID,0,VALID,100,VALID,-0.0169808,VALID,19.6669,VALID,84,VALID,0,
2008-10-08, 00:46:00,VALID,917.939,VALID,0,VALID,100,VALID,-0.0679233,VALID,19.6441,VALID,84,VALID,0,
2008-10-08, 00:47:00,VALID,917.904,VALID,0,VALID,100,VALID,-0.0339617,VALID,19.6214,VALID,84,VALID,0,
2008-10-08, 00:48:00,VALID,917.88,VALID,0,VALID,100,VALID,-0.0169808,VALID,19.5985,VALID,84,VALID,0,
2008-10-08, 00:49:00,VALID,917.861,VALID,0,VALID,100,VALID,-0.0169808,VALID,19.589,VALID,84,VALID,0,
2008-10-08, 00:50:00,VALID,917.843,VALID,0,VALID,100,VALID,-0.0509425,VALID,19.576,VALID,84,VALID,0,
2008-10-08, 00:51:00,VALID,917.827,VALID,0,VALID,100,VALID,-0.0509425,VALID,19.5663,VALID,84,VALID,0,
2008-10-08, 00:52:00,VALID,917.82,VALID,0,VALID,100,VALID,-0.0169808,VALID,19.5565,VALID,84,VALID,0,
2008-10-08, 00:53:00,VALID,917.813,VALID,0,VALID,100,VALID,-0.0169808,VALID,19.5206,VALID,84,VALID,0,
2008-10-08, 00:54:00,VALID,917.808,VALID,0,VALID,100,VALID,-0.0509425,VALID,19.4951,VALID,100,VALID,0,
2008-10-08, 00:55:00,VALID,917.801,VALID,0,VALID,100,VALID,-0.0169808,VALID,19.4652,VALID,128,VALID,0,
2008-10-08, 00:56:00,VALID,917.791,VALID,0,VALID,100,VALID,-0.0509425,VALID,19.4692,VALID,128,VALID,0,
2008-10-08, 00:57:00,VALID,917.785,VALID,0,VALID,100,VALID,-0.0509425,VALID,19.4462,VALID,128,VALID,0,
2008-10-08, 00:58:00,VALID,917.774,VALID,0,VALID,100,VALID,-0.101885,VALID,19.4497,VALID,128,VALID,0,
2008-10-08, 00:59:00,VALID,917.754,VALID,0,VALID,100,VALID,-0.0339617,VALID,19.4263,VALID,128,VALID,0,
2008-10-08, 01:00:00,VALID,917.736,VALID,0,VALID,100,VALID,-0.0679233,VALID,19.4328,VALID,128,VALID,0,
2008-10-08, 01:01:00,VALID,917.713,VALID,0,VALID,100,VALID,0,VALID,19.4135,VALID,128,VALID,0,
2008-10-08, 01:02:00,VALID,917.706,VALID,0,VALID,100,VALID,0,VALID,19.4006,VALID,128,VALID,0,
2008-10-08, 01:03:00,VALID,917.681,VALID,0,VALID,100,VALID,-0.0509425,VALID,19.3649,VALID,128,VALID,0,
2008-10-08, 01:04:00,VALID,917.68,VALID,0,VALID,100,VALID,-0.0169808,VALID,19.3457,VALID,128,VALID,0,
2008-10-08, 01:05:00,VALID,917.669,VALID,0,VALID,100,VALID,-0.0169808,VALID,19.3294,VALID,128,VALID,0,
2008-10-08, 01:06:00,VALID,917.667,VALID,0,VALID,100,VALID,-0.0679233,VALID,19.3162,VALID,128,VALID,0,
2008-10-08, 01:07:00,VALID,917.658,VALID,0,VALID,100,VALID,-0.0679233,VALID,19.3132,VALID,128,VALID,0,
2008-10-08, 01:08:00,VALID,917.665,VALID,0,VALID,100,VALID,-0.0509425,VALID,19.323,VALID,128,VALID,0,
2008-10-08, 01:09:00,VALID,917.649,VALID,0,VALID,100,VALID,-0.0679233,VALID,19.3262,VALID,128,VALID,0,
2008-10-08, 01:10:00,VALID,917.637,VALID,0,VALID,100,VALID,-0.0339617,VALID,19.3294,VALID,128,VALID,0,
2008-10-08, 01:11:00,VALID,917.623,VALID,0,VALID,100,VALID,0,VALID,19.326,VALID,128,VALID,0,
2008-10-08, 01:12:00,VALID,917.606,VALID,0,VALID,100,VALID,-0.0509425,VALID,19.3222,VALID,128,VALID,0,
2008-10-08, 01:13:00,VALID,917.588,VALID,0,VALID,100,VALID,-0.0169808,VALID,19.3292,VALID,128,VALID,0,
2008-10-08, 01:14:00,VALID,917.566,VALID,0,VALID,100,VALID,-0.0509425,VALID,19.3294,VALID,128,VALID,0,
2008-10-08, 01:15:00,VALID,917.556,VALID,0,VALID,100,VALID,-0.0169808,VALID,19.326,VALID,128,VALID,0,
2008-10-08, 01:16:00,VALID,917.526,VALID,0,VALID,100,VALID,-0.0509425,VALID,19.3162,VALID,128,VALID,0,
2008-10-08, 01:17:00,VALID,917.517,VALID,0,VALID,100,VALID,-0.0339617,VALID,19.3097,VALID,128,VALID,0,
2008-10-08, 01:18:00,VALID,917.501,VALID,0,VALID,100,VALID,-0.0509425,VALID,19.2968,VALID,128,VALID,0,
2008-10-08, 01:19:00,VALID,917.489,VALID,0,VALID,100,VALID,-0.0169808,VALID,19.297,VALID,128,VALID,0,
2008-10-08, 01:20:00,VALID,917.482,VALID,0,VALID,100,VALID,-0.0339617,VALID,19.2578,VALID,128,VALID,0,
2008-10-08, 01:21:00,VALID,917.479,VALID,0,VALID,100,VALID,-0.0169808,VALID,19.2221,VALID,128,VALID,0,
2008-10-08, 01:22:00,VALID,917.465,VALID,0,VALID,100,VALID,-0.0169808,VALID,19.1959,VALID,128,VALID,0,
2008-10-08, 01:23:00,VALID,917.445,VALID,0,VALID,100,VALID,-0.0169808,VALID,19.16,VALID,128,VALID,0,
2008-10-08, 01:24:00,VALID,917.435,VALID,0,VALID,100,VALID,-0.0339617,VALID,19.1216,VALID,128,VALID,0,
2008-10-08, 01:25:00,VALID,917.423,VALID,0,VALID,100,VALID,-0.0509425,VALID,19.1056,VALID,128,VALID,0,
2008-10-08, 01:26:00,VALID,917.407,VALID,0,VALID,100,VALID,-0.0339617,VALID,19.1146,VALID,128,VALID,0,
2008-10-08, 01:27:00,VALID,917.388,VALID,0,VALID,100,VALID,-0.0169808,VALID,19.1216,VALID,128,VALID,0,
2008-10-08, 01:28:00,VALID,917.375,VALID,0,VALID,100,VALID,0,VALID,19.1181,VALID,128,VALID,0,
2008-10-08, 01:29:00,VALID,917.359,VALID,0,VALID,100,VALID,-0.0169808,VALID,19.1014,VALID,128,VALID,0,
2008-10-08, 01:30:00,VALID,917.354,VALID,0,VALID,100,VALID,-0.0169808,VALID,19.1086,VALID,128,VALID,0,
2008-10-08, 01:31:00,VALID,917.357,VALID,0,VALID,100,VALID,-0.101885,VALID,19.1151,VALID,128,VALID,0,
2008-10-08, 01:32:00,VALID,917.343,VALID,0,VALID,100,VALID,-0.0339617,VALID,19.1086,VALID,128,VALID,0,
2008-10-08, 01:33:00,VALID,917.348,VALID,0,VALID,100,VALID,-0.0339617,VALID,19.0926,VALID,128,VALID,0,
2008-10-08, 01:34:00,VALID,917.349,VALID,0,VALID,100,VALID,0,VALID,19.0629,VALID,128,VALID,0,
2008-10-08, 01:35:00,VALID,917.334,VALID,0,VALID,100,VALID,-0.0169808,VALID,19.0338,VALID,128,VALID,0,
2008-10-08, 01:36:00,VALID,917.333,VALID,0,VALID,100,VALID,-0.0339617,VALID,19.0016,VALID,128,VALID,0,
2008-10-08, 01:37:00,VALID,917.341,VALID,0,VALID,100,VALID,-0.0509425,VALID,18.9821,VALID,128,VALID,0,
2008-10-08, 01:38:00,VALID,917.34,VALID,0,VALID,100,VALID,-0.0509425,VALID,18.9427,VALID,128,VALID,0,
2008-10-08, 01:39:00,VALID,917.339,VALID,0,VALID,100,VALID,0,VALID,18.9457,VALID,128,VALID,0,
2008-10-08, 01:40:00,VALID,917.319,VALID,0,VALID,100,VALID,-0.0169808,VALID,18.9399,VALID,128,VALID,0,
2008-10-08, 01:41:00,VALID,917.316,VALID,0,VALID,100,VALID,-0.0169808,VALID,18.9232,VALID,128,VALID,0,
2008-10-08, 01:42:00,VALID,917.296,VALID,0,VALID,100,VALID,-0.0339617,VALID,18.9003,VALID,128,VALID,0,
2008-10-08, 01:43:00,VALID,917.285,VALID,0,VALID,100,VALID,0,VALID,18.8938,VALID,128,VALID,0,
2008-10-08, 01:44:00,VALID,917.279,VALID,0,VALID,100,VALID,0,VALID,18.8975,VALID,128,VALID,0,
2008-10-08, 01:45:00,VALID,917.254,VALID,0,VALID,100,VALID,0,VALID,18.8968,VALID,128,VALID,0,
2008-10-08, 01:46:00,VALID,917.239,VALID,0,VALID,100,VALID,-0.0169808,VALID,18.9237,VALID,128,VALID,0,
2008-10-08, 01:47:00,VALID,917.24,VALID,0,VALID,100,VALID,-0.0169808,VALID,18.9102,VALID,128,VALID,0,
2008-10-08, 01:48:00,VALID,917.234,VALID,0,VALID,100,VALID,0.0169808,VALID,18.8781,VALID,128,VALID,0,
2008-10-08, 01:49:00,VALID,917.23,VALID,0,VALID,100,VALID,0,VALID,18.8257,VALID,128,VALID,0,
2008-10-08, 01:50:00,VALID,917.238,VALID,0,VALID,100,VALID,-0.0169808,VALID,18.8027,VALID,128,VALID,0,
2008-10-08, 01:51:00,VALID,917.215,VALID,0,VALID,100,VALID,-0.0339617,VALID,18.8324,VALID,128,VALID,0,
2008-10-08, 01:52:00,VALID,917.214,VALID,0,VALID,100,VALID,-0.118866,VALID,18.873,VALID,134,VALID,0,
2008-10-08, 01:53:00,VALID,917.198,VALID,0,VALID,100,VALID,-0.101885,VALID,18.9152,VALID,145,VALID,0,
2008-10-08, 01:54:00,VALID,917.2,VALID,0,VALID,100,VALID,-0.118866,VALID,18.9114,VALID,145,VALID,0,
2008-10-08, 01:55:00,VALID,917.201,VALID,0,VALID,100,VALID,-0.135847,VALID,18.9047,VALID,145,VALID,0,
2008-10-08, 01:56:00,VALID,917.187,VALID,0,VALID,100,VALID,-0.118866,VALID,18.905,VALID,145,VALID,0,
2008-10-08, 01:57:00,VALID,917.174,VALID,0,VALID,100,VALID,-0.118866,VALID,18.8725,VALID,145,VALID,0,
2008-10-08, 01:58:00,VALID,917.162,VALID,0,VALID,100,VALID,-0.101885,VALID,18.873,VALID,145,VALID,0,
2008-10-08, 01:59:00,VALID,917.154,VALID,0,VALID,100,VALID,-0.118866,VALID,18.8598,VALID,147,VALID,0,
2008-10-08, 02:00:00,VALID,917.148,VALID,0,VALID,100,VALID,-0.101885,VALID,18.8656,VALID,150,VALID,0,
2008-10-08, 02:01:00,VALID,917.134,VALID,0,VALID,100,VALID,-0.101885,VALID,18.8593,VALID,150,VALID,0,
2008-10-08, 02:02:00,VALID,917.125,VALID,0,VALID,100,VALID,-0.101885,VALID,18.883,VALID,150,VALID,0,
2008-10-08, 02:03:00,VALID,917.105,VALID,0,VALID,100,VALID,-0.101885,VALID,18.8728,VALID,149,VALID,0,
2008-10-08, 02:04:00,VALID,917.097,VALID,0,VALID,100,VALID,-0.0679233,VALID,18.8394,VALID,143,VALID,0,
2008-10-08, 02:05:00,VALID,917.093,VALID,0,VALID,100,VALID,-0.0169808,VALID,18.8419,VALID,143,VALID,0,
2008-10-08, 02:06:00,VALID,917.075,VALID,0,VALID,100,VALID,0.0169808,VALID,18.8352,VALID,141,VALID,0,
2008-10-08, 02:07:00,VALID,917.083,VALID,0,VALID,100,VALID,-0.0509425,VALID,18.8157,VALID,141,VALID,0,
2008-10-08, 02:08:00,VALID,917.068,VALID,0,VALID,100,VALID,-0.0169808,VALID,18.8134,VALID,141,VALID,0,
2008-10-08, 02:09:00,VALID,917.066,VALID,0,VALID,100,VALID,-0.0339617,VALID,18.7967,VALID,141,VALID,0,
2008-10-08, 02:10:00,VALID,917.083,VALID,0,VALID,100,VALID,-0.0169808,VALID,18.7777,VALID,136,VALID,0,
2008-10-08, 02:11:00,VALID,917.09,VALID,0,VALID,100,VALID,-0.0169808,VALID,18.7743,VALID,136,VALID,0,
2008-10-08, 02:12:00,VALID,917.08,VALID,0,VALID,100,VALID,0,VALID,18.7738,VALID,136,VALID,0,
2008-10-08, 02:13:00,VALID,917.083,VALID,0,VALID,100,VALID,0,VALID,18.7671,VALID,136,VALID,0,
2008-10-08, 02:14:00,VALID,917.074,VALID,0,VALID,100,VALID,-0.0169808,VALID,18.7708,VALID,137,VALID,0,
2008-10-08, 02:15:00,VALID,917.065,VALID,0,VALID,100,VALID,0,VALID,18.7837,VALID,158,VALID,0,
2008-10-08, 02:16:00,VALID,917.056,VALID,0,VALID,100,VALID,-0.0339617,VALID,18.7935,VALID,158,VALID,0,
2008-10-08, 02:17:00,VALID,917.048,VALID,0,VALID,100,VALID,-0.0169808,VALID,18.7932,VALID,158,VALID,0,
2008-10-08, 02:18:00,VALID,917.03,VALID,0,VALID,100,VALID,0.0169808,VALID,18.7865,VALID,158,VALID,0,
2008-10-08, 02:19:00,VALID,917.009,VALID,0,VALID,100,VALID,0,VALID,18.777,VALID,158,VALID,0,
2008-10-08, 02:20:00,VALID,916.999,VALID,0,VALID,100,VALID,-0.0169808,VALID,18.7675,VALID,158,VALID,0,
2008-10-08, 02:21:00,VALID,916.993,VALID,0,VALID,100,VALID,-0.0679233,VALID,18.7645,VALID,158,VALID,0,
2008-10-08, 02:22:00,VALID,916.972,VALID,0,VALID,100,VALID,-0.0339617,VALID,18.7678,VALID,158,VALID,0,
2008-10-08, 02:23:00,VALID,916.978,VALID,0,VALID,100,VALID,-0.0339617,VALID,18.7773,VALID,158,VALID,0,
2008-10-08, 02:24:00,VALID,916.971,VALID,0,VALID,100,VALID,-0.0169808,VALID,18.774,VALID,158,VALID,0,
2008-10-08, 02:25:00,VALID,916.974,VALID,0,VALID,100,VALID,-0.0169808,VALID,18.7578,VALID,158,VALID,0,
2008-10-08, 02:26:00,VALID,916.966,VALID,0,VALID,100,VALID,-0.0339617,VALID,18.7513,VALID,157,VALID,0,
2008-10-08, 02:27:00,VALID,916.973,VALID,0,VALID,100,VALID,0,VALID,18.7606,VALID,153,VALID,0,
2008-10-08, 02:28:00,VALID,916.985,VALID,0,VALID,100,VALID,-0.0679233,VALID,18.7777,VALID,153,VALID,0,
2008-10-08, 02:29:00,VALID,916.977,VALID,0,VALID,100,VALID,0,VALID,18.787,VALID,153,VALID,0,
2008-10-08, 02:30:00,VALID,916.985,VALID,0,VALID,100,VALID,-0.0169808,VALID,18.787,VALID,153,VALID,0,
2008-10-08, 02:31:00,VALID,916.984,VALID,0,VALID,100,VALID,-0.0169808,VALID,18.7738,VALID,151,VALID,0,
2008-10-08, 02:32:00,VALID,916.989,VALID,0,VALID,100,VALID,-0.0509425,VALID,18.771,VALID,147,VALID,0,
2008-10-08, 02:33:00,VALID,916.968,VALID,0,VALID,100,VALID,-0.0339617,VALID,18.764,VALID,147,VALID,0,
2008-10-08, 02:34:00,VALID,916.971,VALID,0,VALID,100,VALID,0.0169808,VALID,18.7703,VALID,153,VALID,0,
2008-10-08, 02:35:00,VALID,916.969,VALID,0,VALID,100,VALID,-0.0679233,VALID,18.7868,VALID,157,VALID,0,
2008-10-08, 02:36:00,VALID,916.965,VALID,0,VALID,100,VALID,-0.0339617,VALID,18.7932,VALID,157,VALID,0,
2008-10-08, 02:37:00,VALID,916.971,VALID,0,VALID,100,VALID,0,VALID,18.8007,VALID,157,VALID,0,
2008-10-08, 02:38:00,VALID,916.973,VALID,0,VALID,100,VALID,-0.0849042,VALID,18.777,VALID,157,VALID,0,
2008-10-08, 02:39:00,VALID,916.954,VALID,0,VALID,100,VALID,-0.0509425,VALID,18.7645,VALID,157,VALID,0,
2008-10-08, 02:40:00,VALID,916.964,VALID,0,VALID,100,VALID,0,VALID,18.7444,VALID,157,VALID,0,
2008-10-08, 02:41:00,VALID,916.962,VALID,0,VALID,100,VALID,-0.0169808,VALID,18.7576,VALID,153,VALID,0,
2008-10-08, 02:42:00,VALID,916.956,VALID,0,VALID,100,VALID,-0.0169808,VALID,18.784,VALID,145,VALID,0,
2008-10-08, 02:43:00,VALID,916.957,VALID,0,VALID,100,VALID,-0.0339617,VALID,18.7837,VALID,125,VALID,0,
2008-10-08, 02:44:00,VALID,916.939,VALID,0,VALID,100,VALID,-0.0509425,VALID,18.7937,VALID,124,VALID,0,
2008-10-08, 02:45:00,VALID,916.94,VALID,0,VALID,100,VALID,-0.0339617,VALID,18.8324,VALID,129,VALID,0,
2008-10-08, 02:46:00,VALID,916.928,VALID,0,VALID,100,VALID,0.0169808,VALID,18.8252,VALID,124,VALID,0,
2008-10-08, 02:47:00,VALID,916.924,VALID,0,VALID,100,VALID,-0.0169808,VALID,18.8354,VALID,124,VALID,0,
2008-10-08, 02:48:00,VALID,916.922,VALID,0,VALID,100,VALID,-0.0169808,VALID,18.8257,VALID,123,VALID,0,
2008-10-08, 02:49:00,VALID,916.903,VALID,0,VALID,100,VALID,-0.0339617,VALID,18.803,VALID,123,VALID,0,
2008-10-08, 02:50:00,VALID,916.893,VALID,0,VALID,100,VALID,-0.0339617,VALID,18.7807,VALID,126,VALID,0.417039,
2008-10-08, 02:51:00,VALID,916.879,VALID,0,VALID,100,VALID,-0.0339617,VALID,18.7451,VALID,127,VALID,0.295785,
2008-10-08, 02:52:00,VALID,916.884,VALID,0,VALID,100,VALID,-0.0849042,VALID,18.7381,VALID,123,VALID,0.352679,
2008-10-08, 02:53:00,VALID,916.876,VALID,0,VALID,100,VALID,-0.0339617,VALID,18.7258,VALID,122,VALID,0,
2008-10-08, 02:54:00,VALID,916.86,VALID,0,VALID,100,VALID,-0.0679233,VALID,18.7091,VALID,120,VALID,0,
2008-10-08, 02:55:00,VALID,916.864,VALID,0,VALID,100,VALID,-0.0679233,VALID,18.6867,VALID,120,VALID,0,
2008-10-08, 02:56:00,VALID,916.856,VALID,0,VALID,100,VALID,-0.0509425,VALID,18.66,VALID,127,VALID,0,
2008-10-08, 02:57:00,VALID,916.854,VALID,0,VALID,100,VALID,-0.0339617,VALID,18.6573,VALID,134,VALID,0,
2008-10-08, 02:58:00,VALID,916.848,VALID,0,VALID,100,VALID,-0.0509425,VALID,18.6545,VALID,134,VALID,0,
2008-10-08, 02:59:00,VALID,916.825,VALID,0,VALID,100,VALID,-0.0339617,VALID,18.6345,VALID,134,VALID,0,
2008-10-08, 03:00:00,VALID,916.813,VALID,0,VALID,100,VALID,-0.101885,VALID,18.6315,VALID,134,VALID,0,
2008-10-08, 03:01:00,VALID,916.804,VALID,0,VALID,100,VALID,-0.0339617,VALID,18.6378,VALID,134,VALID,0,
2008-10-08, 03:02:00,VALID,916.784,VALID,0,VALID,100,VALID,-0.0509425,VALID,18.6285,VALID,139,VALID,0,
2008-10-08, 03:03:00,VALID,916.776,VALID,0,VALID,100,VALID,-0.0169808,VALID,18.6156,VALID,140,VALID,0,
2008-10-08, 03:04:00,VALID,916.767,VALID,0,VALID,100,VALID,-0.0679233,VALID,18.5956,VALID,140,VALID,0,
2008-10-08, 03:05:00,VALID,916.763,VALID,0,VALID,100,VALID,-0.0509425,VALID,18.5794,VALID,140,VALID,0,
2008-10-08, 03:06:00,VALID,916.75,VALID,0,VALID,100,VALID,-0.0339617,VALID,18.5662,VALID,140,VALID,0,
2008-10-08, 03:07:00,VALID,916.736,VALID,0,VALID,100,VALID,-0.0849042,VALID,18.5565,VALID,140,VALID,0,
2008-10-08, 03:08:00,VALID,916.735,VALID,0,VALID,100,VALID,-0.0339617,VALID,18.541,VALID,130,VALID,0,
2008-10-08, 03:09:00,VALID,916.75,VALID,0,VALID,100,VALID,0,VALID,18.4976,VALID,119,VALID,0,
2008-10-08, 03:10:00,VALID,916.737,VALID,0,VALID,100,VALID,-0.0339617,VALID,18.4886,VALID,120,VALID,0,
2008-10-08, 03:11:00,VALID,916.724,VALID,0,VALID,100,VALID,-0.0679233,VALID,18.5018,VALID,120,VALID,0,
2008-10-08, 03:12:00,VALID,916.725,VALID,0,VALID,100,VALID,-0.0339617,VALID,18.505,VALID,120,VALID,0,
2008-10-08, 03:13:00,VALID,916.723,VALID,0,VALID,100,VALID,-0.0509425,VALID,18.4979,VALID,125,VALID,0,
2008-10-08, 03:14:00,VALID,916.716,VALID,0,VALID,100,VALID,-0.0169808,VALID,18.4879,VALID,125,VALID,0,
2008-10-08, 03:15:00,VALID,916.701,VALID,0,VALID,100,VALID,0,VALID,18.5178,VALID,127,VALID,0,
2008-10-08, 03:16:00,VALID,916.707,VALID,0,VALID,100,VALID,0,VALID,18.5081,VALID,129,VALID,0.0459449,
2008-10-08, 03:17:00,VALID,916.708,VALID,0,VALID,100,VALID,-0.0339617,VALID,18.4946,VALID,128,VALID,0.464286,
2008-10-08, 03:18:00,VALID,916.723,VALID,0,VALID,100,VALID,-0.0339617,VALID,18.5013,VALID,136,VALID,0.776228,
2008-10-08, 03:19:00,VALID,916.726,VALID,0,VALID,100,VALID,-0.0339617,VALID,18.524,VALID,126,VALID,0.667039,
2008-10-08, 03:20:00,VALID,916.752,VALID,0,VALID,100,VALID,-0.0169808,VALID,18.527,VALID,123,VALID,0.645579,
2008-10-08, 03:21:00,VALID,916.76,VALID,0,VALID,100,VALID,-0.0339617,VALID,18.5016,VALID,118,VALID,0.92081,
2008-10-08, 03:22:00,VALID,916.768,VALID,0,VALID,100,VALID,-0.0339617,VALID,18.4884,VALID,123,VALID,0.630035,
2008-10-08, 03:23:00,VALID,916.775,VALID,0,VALID,100,VALID,0,VALID,18.4594,VALID,106,VALID,0.612043,
2008-10-08, 03:24:00,VALID,916.76,VALID,0,VALID,100,VALID,-0.0169808,VALID,18.4198,VALID,117,VALID,0.691051,
2008-10-08, 03:25:00,VALID,916.761,VALID,0,VALID,100,VALID,-0.0169808,VALID,18.42,VALID,134,VALID,0.558222,
2008-10-08, 03:26:00,VALID,916.755,VALID,0,VALID,100,VALID,-0.0169808,VALID,18.4298,VALID,139,VALID,0.0237847,
2008-10-08, 03:27:00,VALID,916.76,VALID,0,VALID,100,VALID,0,VALID,18.433,VALID,132,VALID,0,
2008-10-08, 03:28:00,VALID,916.754,VALID,0,VALID,100,VALID,-0.0169808,VALID,18.426,VALID,127,VALID,0,
2008-10-08, 03:29:00,VALID,916.747,VALID,0,VALID,100,VALID,0,VALID,18.4589,VALID,114,VALID,0,
2008-10-08, 03:30:00,VALID,916.742,VALID,0,VALID,100,VALID,0,VALID,18.4592,VALID,107,VALID,0,
2008-10-08, 03:31:00,VALID,916.751,VALID,0,VALID,100,VALID,0,VALID,18.4557,VALID,105,VALID,0,
2008-10-08, 03:32:00,VALID,916.748,VALID,0,VALID,100,VALID,-0.0339617,VALID,18.4784,VALID,93,VALID,0,
2008-10-08, 03:33:00,VALID,916.748,VALID,0,VALID,100,VALID,0,VALID,18.4849,VALID,94,VALID,0,
2008-10-08, 03:34:00,VALID,916.741,VALID,0,VALID,100,VALID,0,VALID,18.4847,VALID,94,VALID,0,
2008-10-08, 03:35:00,VALID,916.763,VALID,0,VALID,100,VALID,0,VALID,18.4552,VALID,94,VALID,0,
2008-10-08, 03:36:00,VALID,916.75,VALID,0,VALID,100,VALID,-0.0339617,VALID,18.4325,VALID,94,VALID,0,
2008-10-08, 03:37:00,VALID,916.741,VALID,0,VALID,100,VALID,0,VALID,18.4362,VALID,94,VALID,0,
2008-10-08, 03:38:00,VALID,916.728,VALID,0,VALID,100,VALID,0,VALID,18.4423,VALID,94,VALID,0,
2008-10-08, 03:39:00,VALID,916.726,VALID,0,VALID,100,VALID,0,VALID,18.4911,VALID,103,VALID,0.0263247,
2008-10-08, 03:40:00,VALID,916.725,VALID,0,VALID,100,VALID,0,VALID,18.5074,VALID,124,VALID,0.26726,
2008-10-08, 03:41:00,VALID,916.728,VALID,0,VALID,100,VALID,-0.0339617,VALID,18.4972,VALID,127,VALID,0.00390625,
2008-10-08, 03:42:00,VALID,916.74,VALID,0,VALID,100,VALID,0,VALID,18.5171,VALID,128,VALID,0.149503,
2008-10-08, 03:43:00,VALID,916.744,VALID,0,VALID,100,VALID,0,VALID,18.54,VALID,128,VALID,0.458939,
2008-10-08, 03:44:00,VALID,916.746,VALID,0,VALID,100,VALID,0,VALID,18.5463,VALID,130,VALID,0.25621,
2008-10-08, 03:45:00,VALID,916.758,VALID,0,VALID,100,VALID,0,VALID,18.6209,VALID,139,VALID,1.14811,
2008-10-08, 03:46:00,VALID,916.752,VALID,0,VALID,100,VALID,-0.0169808,VALID,18.6598,VALID,142,VALID,0.515625,
2008-10-08, 03:47:00,VALID,916.765,VALID,0,VALID,100,VALID,-0.0169808,VALID,18.6925,VALID,144,VALID,0.237464,
2008-10-08, 03:48:00,VALID,916.78,VALID,0,VALID,100,VALID,-0.0169808,VALID,18.7279,VALID,155,VALID,0.509266,
2008-10-08, 03:49:00,VALID,916.795,VALID,0,VALID,100,VALID,-0.0169808,VALID,18.7508,VALID,159,VALID,0.303646,
2008-10-08, 03:50:00,VALID,916.786,VALID,0,VALID,100,VALID,0,VALID,18.7701,VALID,151,VALID,0.0775534,
2008-10-08, 03:51:00,VALID,916.787,VALID,0,VALID,100,VALID,0,VALID,18.783,VALID,155,VALID,0.0614099,